Alliance, NE

5:40 PM MDT on September 27, 2016 (GMT -0600)
Alliance Municipal

Weather History for KAIA - February, 2014

Change the Weather History Date:

Wednesday, February 5, 2014

  Actual Average Record
Temperature  
Mean Temperature -11 °F 25 °F  
Max Temperature 2 °F 39 °F 66 °F (1904)
Min Temperature -25 °F 11 °F -32 °F (1899)
Degree Days  
Heating Degree Days 76 40  
Month to date heating degree days 311 200  
Since 1 July heating degree days 3809 4545  
Cooling Degree Days 0 0  
Month to date cooling degree days 0 0  
Year to date cooling degree days 0 0  
Moisture  
Dew Point -16 °F    
Average Humidity 73    
Maximum Humidity 87    
Minimum Humidity 59    
Precipitation  
Precipitation T in 0.01 in 0.85 in (1986)
Month to date precipitation T 0.06  
Year to date precipitation 0.12 0.24  
Sea Level Pressure  
Sea Level Pressure 30.60 in    
Wind  
Wind Speed 4 mph (NNW)    
Max Wind Speed 10 mph    
Max Gust Speed 11 mph    
Visibility 8 miles    
Events Snow    
T = Trace of Precipitation, MM = Missing Value Source: NWS Daily Summary

Daily Weather History Graph

Daily Weather History Graph

Search for Another Location

Airport or City:

Trip Planner

Search our weather history database for the weather conditions in past years. The results will help you decide how hot, cold, wet, or windy it might be!

Date:

Astronomy

Feb. 05, 2014 Rise Set
Actual Time 6:59 AM MST 5:11 PM MST
Civil Twilight 6:30 AM MST 5:40 PM MST
Nautical Twilight 5:57 AM MST 6:13 PM MST
Astronomical Twilight 5:24 AM MST 6:46 PM MST
Moon 10:08 AM MST (2/5) No Moon Set
Length of Visible Light 11h 10m
Length of Day
10h 11m
Waxing Crescent, 40% of the Moon is Illuminated
Feb 5
Waxing Crescent
Feb 6
First Quarter
Feb 14
Full
Feb 22
Last Quarter
Mar 1
New

Hourly Weather History & Observations

Time (MST) Temp. Windchill Dew Point Humidity Pressure Visibility Wind Dir Wind Speed Gust Speed Precip Events Conditions
12:25 AM -2.9 °F -16.5 °F -8.0 °F 79% 30.39 in 4.0 mi NNW 6.9 mph - N/A   Haze
12:53 AM -5.1 °F -17.6 °F -9.9 °F 80% 30.67 in 6.0 mi NNW 5.8 mph - N/A   Haze
1:10 AM -7.1 °F -21.4 °F -11.0 °F 83% 30.39 in 10.0 mi NNW 6.9 mph - N/A   Scattered Clouds
1:53 AM -9.0 °F -23.8 °F -13.0 °F 83% 30.70 in 10.0 mi NNW 6.9 mph - N/A   Clear
2:53 AM -18.0 °F -33.0 °F -23.1 °F 78% 30.73 in 9.0 mi WNW 5.8 mph - N/A   Clear
3:53 AM -18.9 °F -37.2 °F -24.0 °F 78% 30.74 in 8.0 mi WNW 8.1 mph - N/A   Clear
4:53 AM -18.9 °F -34.0 °F -24.0 °F 78% 30.76 in 10.0 mi WNW 5.8 mph - N/A   Clear
5:53 AM -22.0 °F -35.6 °F -27.0 °F 77% 30.78 in 10.0 mi WNW 4.6 mph - N/A   Clear
6:06 AM -24.0 °F -37.9 °F -27.9 °F 82% 30.43 in 10.0 mi West 4.6 mph - N/A   Scattered Clouds
6:14 AM -23.1 °F -36.8 °F -27.9 °F 78% 30.43 in 10.0 mi West 4.6 mph - N/A   Mostly Cloudy
6:30 AM -23.1 °F -42.3 °F -27.9 °F 78% 30.44 in 10.0 mi West 8.1 mph - N/A   Overcast
6:53 AM -22.0 °F -37.7 °F -26.0 °F 82% 30.79 in 10.0 mi West 5.8 mph - N/A   Scattered Clouds
7:53 AM -20.0 °F -33.3 °F -23.1 °F 86% 30.79 in 10.0 mi West 4.6 mph - N/A   Clear
8:17 AM -17.0 °F -31.7 °F -22.0 °F 78% 30.46 in 1.5 mi West 5.8 mph - N/A   Haze
8:20 AM -17.0 °F -33.4 °F -22.0 °F 78% 30.46 in 1.0 mi West 6.9 mph - N/A   Haze
8:26 AM -16.1 °F -32.3 °F -20.9 °F 79% 30.46 in 1.5 mi WNW 6.9 mph - N/A   Haze
8:29 AM -16.1 °F -32.3 °F -20.9 °F 79% 30.46 in 3.0 mi WNW 6.9 mph - N/A   Haze
8:40 AM -15.0 °F -31.0 °F -18.9 °F 82% 30.46 in 10.0 mi WNW 6.9 mph - N/A   Overcast
8:53 AM -14.1 °F -29.9 °F -18.9 °F 79% 30.80 in 7.0 mi WNW 6.9 mph - 0.00 in Snow Light Snow
9:02 AM -14.1 °F -26.3 °F -18.0 °F 82% 30.47 in 6.0 mi West 4.6 mph - 0.00 in   Scattered Clouds
9:53 AM -9.0 °F -20.4 °F -13.0 °F 83% 30.79 in 10.0 mi West 4.6 mph - 0.00 in   Scattered Clouds
10:38 AM -2.0 °F -17.7 °F -9.0 °F 72% 30.45 in 6.0 mi North 9.2 mph - 0.00 in   Haze
10:53 AM -0.9 °F -14.1 °F -8.0 °F 72% 30.74 in 6.0 mi North 6.9 mph - 0.00 in   Haze
11:24 AM -0.0 °F -11.6 °F -7.1 °F 72% 30.45 in 2.5 mi North 5.8 mph - 0.00 in Snow Light Snow
11:45 AM -0.0 °F -14.2 °F -8.0 °F 69% 30.45 in 3.0 mi North 8.1 mph - 0.00 in   Haze
11:53 AM -0.0 °F -11.6 °F -8.0 °F 69% 30.72 in 3.0 mi NNE 5.8 mph - 0.00 in Snow Light Snow
12:53 PM -0.0 °F -7.9 °F -9.0 °F 66% 30.71 in 7.0 mi NNE 3.5 mph - 0.00 in   Overcast
1:53 PM -0.0 °F -7.9 °F -9.9 °F 63% 30.71 in 10.0 mi NNE 3.5 mph - N/A   Overcast
2:04 PM -0.0 °F -7.9 °F -9.0 °F 66% 30.41 in 10.0 mi ENE 3.5 mph - N/A   Overcast
2:21 PM 1.0 °F - -8.0 °F 66% 30.41 in 7.0 mi Calm Calm - N/A   Overcast
2:28 PM 1.0 °F -6.7 °F -9.0 °F 63% 30.41 in 5.0 mi North 3.5 mph - N/A   Haze
2:36 PM 1.0 °F - -9.0 °F 63% 30.41 in 4.0 mi Calm Calm - N/A   Haze
2:53 PM -0.0 °F -11.6 °F -9.0 °F 66% 30.74 in 5.0 mi NE 5.8 mph - 0.00 in   Haze
3:11 PM -0.0 °F -9.9 °F -9.0 °F 66% 30.41 in 10.0 mi NE 4.6 mph - N/A   Scattered Clouds
3:53 PM -0.0 °F -11.6 °F -11.0 °F 60% 30.73 in 10.0 mi NE 5.8 mph - N/A   Clear
4:53 PM -5.1 °F -15.8 °F -13.0 °F 69% 30.76 in 10.0 mi ENE 4.6 mph - N/A   Partly Cloudy
5:04 PM -5.1 °F -13.6 °F -13.0 °F 69% 30.40 in 10.0 mi East 3.5 mph - N/A   Mostly Cloudy
5:53 PM -8.0 °F -16.9 °F -13.0 °F 79% 30.78 in 10.0 mi East 3.5 mph - N/A   Mostly Cloudy
6:36 PM -9.0 °F -18.2 °F -14.1 °F 79% 30.40 in 10.0 mi East 3.5 mph - N/A   Scattered Clouds
6:53 PM -11.0 °F - -15.0 °F 83% 30.78 in 10.0 mi Calm Calm - N/A   Clear
7:53 PM -13.0 °F - -17.0 °F 82% 30.77 in 10.0 mi Calm Calm - N/A   Mostly Cloudy
8:53 PM -11.9 °F - -15.0 °F 86% 30.75 in 10.0 mi Calm Calm - N/A   Overcast
9:53 PM -13.0 °F -25.1 °F -17.0 °F 82% 30.73 in 10.0 mi WNW 4.6 mph - N/A   Mostly Cloudy
10:53 PM -13.0 °F - -18.0 °F 78% 30.69 in 10.0 mi Calm Calm - 0.00 in   Overcast
11:53 PM -11.0 °F - -16.1 °F 78% 30.66 in 6.0 mi Calm Calm - 0.00 in Snow Light Snow